www.pogodaiklimat.ru

Погода и климат >> Архив погоды >> Россия >> Пензенская область >> Пенза


АРХИВ ПОГОДЫ в Пензе

Время (UTC), дата Ветер
(напр.,м/с)
 
Видим.   Явления Облачность Т
(С)
Тd
(С)
f
(%)
Тe
(С)
Тes
(С)
Комфортность P
(гПа)
Po
(гПа)
Тmin
(С)
Tmax
(С)
R
(мм)
R24
(мм)
S
(см)
03 11.09 В 1 4000 м дымка 3/0
[Ci fib]
+9.4 +9.2 99 +9 +9 по сезону 1032.9 1012.0 +8.0
06 11.09 В 1 10 км ясно +17.6 +12.4 72 +19 +24 тепло 1032.7 1012.5
09 11.09 В 2 10 км 4/4 1000 м
[Sc]
+23.3 +9.8 42 +25 +30 комфорт 1032.0 1012.2
12 11.09 В 1 10 км 3/3 1000 м
[Sc]
+24.7 +8.0 34 +25 +29 комфорт 1031.0 1011.2
15 11.09 Ю 1 10 км ясно +21.6 +8.5 43 +23 +23 комфорт 1030.4 1010.5 +25.0
18 11.09 штиль 0 10 км ясно +13.5 +9.7 78 +13 +13 по сезону 1031.4 1010.9
21 11.09 штиль 0 10 км ясно +11.5 +10.7 95 +11 +11 по сезону 1031.9 1011.2
00 12.09 штиль 0 10 км ясно +9.7 +9.0 95 +9 +9 по сезону 1032.0 1011.2
03 12.09 ЮЗ 1 10 км ясно +7.9 +7.7 99 +7 +7 прохладно 1032.2 1011.3 +7.7
06 12.09 СВ 1 10 км ясно +17.9 +10.5 62 +19 +25 тепло 1031.5 1011.3
09 12.09 Ю 1 10 км ясно +23.9 +6.6 33 +24 +35 комфорт 1029.8 1010.1
12 12.09 СЗ 1 10 км 3/3 1000 м
[Sc]
+25.7 +6.9 30 +26 +29 жарко 1028.2 1008.6
15 12.09 ЮВ 2 10 км 3/0
[Cc]
+21.7 +8.1 42 +23 +23 комфорт 1027.6 1007.7 +25.7
18 12.09 З 1 10 км ясно +14.7 +8.1 65 +15 +15 тепло 1028.1 1007.7
21 12.09 З 1 10 км ясно +11.1 +7.4 78 +11 +11 по сезону 1027.8 1007.1
00 13.09 ЮЗ 1 10 км ясно +9.5 +5.8 78 +9 +9 по сезону 1027.4 1006.7
03 13.09 штиль 0 10 км ясно +7.8 +5.4 85 +7 +7 прохладно 1027.2 1006.3 +7.6
06 13.09 СЗ 1 10 км 3/0
[Cc]
+19.2 +7.3 46 +21 +26 комфорт 1026.0 1006.0
09 13.09 З 3 10 км 1/0
[Ci fib]
+24.2 +3.3 26 +24 +31 комфорт 1024.3 1004.7
12 13.09 ЮЗ 3 10 км 3/0
[Ac cast Ci fib]
+25.6 +3.9 25 +25 +28 комфорт 1022.1 1002.6
15 13.09 ЮЗ 1 10 км 3/0
[Ci fib]
+22.1 +5.0 33 +22 +22 комфорт 1020.9 1001.1 +25.8
18 13.09 ЮЗ 1 10 км ясно +16.0 +5.1 48 +17 +17 тепло 1020.9 1000.7
21 13.09 штиль 0 10 км ясно +11.5 +5.8 68 +11 +11 по сезону 1019.8 999.4
00 14.09 штиль 0 10 км 3/0
[Ci fib]
+10.1 +5.4 73 +10 +10 по сезону 1018.7 998.2
03 14.09 Ю 1 10 км 4/0
[Ac lent Ci fib]
+12.2 +3.9 57 +12 +12 тепло 1017.3 996.9 +9.7
06 14.09 ЮЗ 4 10 км 6/0
[Ac trans]
+20.4 +4.1 34 +21 +23 комфорт 1015.1 995.4
09 14.09 ЮЗ 6-10
{12}
10 км 3/0
[Ac trans]
+25.7 +3.4 24 +25 +28 комфорт 1012.7 993.3
12 14.09 З 6
{14}
10 км 10/8 1000 м
[Sc Ac trans]
+24.9 +3.8 25 +24 +24 комфорт 1011.9 992.5
15 14.09 З 4
{11}
10 км 10/6 1000 м
[Sc Ac As]
+20.4 +9.1 48 +22 +22 комфорт 1012.3 992.6 +25.9
18 14.09 СЗ 1 10 км слаб. ливневой дождь 10/10 600 м
[Cb cap]
+12.9 +10.6 86 +13 +13 тепло 1014.8 994.6
21 14.09 ЮЗ 1 10 км {ливн. осадки} 10/10 1000 м
[Cb cap]
+12.0 +11.8 99 +12 +12 тепло 1014.9 994.6
00 15.09 З 2 4000 м дымка {ливн. осадки} 10/10 600 м
[Sc]
+11.8 +11.5 98 +11 +11 тепло 1014.4 994.1
03 15.09 ЮЗ 2 4000 м дымка 8/0
[Ac trans]
+9.4 +9.1 98 +8 +8 по сезону 1015.1 994.6 +9.4 2
06 15.09 З 2 10 км 3/0
[Ci fib]
+12.6 +6.7 67 +12 +16 по сезону 1015.7 995.4 +9.3
09 15.09 З 4 10 км 8/5 1000 м
[Cu hum Ac cuf]
+15.4 +3.0 43 +15 +16 тепло 1014.9 994.8
12 15.09 З 3
{12}
10 км {ливн. осадки} 6/3 600 м
[Cb cap Ac cuf Ci fib]
+14.7 +4.0 49 +14 +16 по сезону 1014.4 994.3
15 15.09 СЗ 1 10 км {ливн. осадки} 3/3 600 м
[Cb cap]
+12.5 +6.0 65 +13 +13 по сезону 1014.1 993.9 +16.8 0.4
18 15.09 ЮЗ 1 10 км {ливн. осадки} 3/0
[Ci fib]
+7.5 +3.9 78 +7 +7 прохладно 1014.6 994.0
21 15.09 З 1 10 км 3/0
[Ci fib]
+7.0 +4.1 82 +6 +6 прохладно 1013.4 992.8
00 16.09 ЮЗ 1 10 км 10/4 600 м
[Sc Ac As]
+8.9 +4.1 72 +8 +8 по сезону 1011.5 991.0
03 16.09 ЮЗ 2 10 км 10/3 600 м
[Sc Ac und]
+8.8 +4.1 72 +7 +7 по сезону 1009.5 989.1 +6.2
06 16.09 ЮЗ 2 4000 м слаб. дождь 10/3 600 м
[Sc diur, vesp As op]
+10.3 +6.0 75 +9 +10 по сезону 1006.9 986.7
09 16.09 ЮЗ 4 4000 м слаб. дождь 10/4 600 м
[Sc As op]
+13.0 +7.1 67 +11 +12 по сезону 1004.2 984.2
12 16.09 З 7-13
{14}
10 км {дождь} 10/0
[Ac As]
+17.0 +4.4 43 +16 +16 по сезону 1001.8 982.1
15 16.09 З 3
{14}
10 км {дождь} 9/0
[Ac As]
+15.1 +5.7 53 +15 +15 тепло 1002.2 982.3 +17.0 0.3
18 16.09 З 2 10 км {дождь} 4/4 600 м
[Sc]
+11.6 +6.1 69 +11 +11 по сезону 1003.1 983.0
21 16.09 ЮЗ 1 10 км {дождь} 3/0
[Ac trans]
+8.9 +6.2 83 +8 +8 по сезону 1003.1 982.9
00 17.09 З 2 10 км {дождь} ясно +8.1 +5.7 85 +6 +6 по сезону 1002.8 982.4
03 17.09 ЮЗ 1 10 км 4/0
[Ac trans Cc]
+6.8 +5.7 93 +6 +6 прохладно 1002.5 982.1 +6.3 0.0
06 17.09 ЮЗ 4 10 км 9/0
[Ac As Cc]
+13.1 +6.6 65 +12 +14 по сезону 1002.1 982.1
09 17.09 З 6-10
{13}
10 км 8/8 600 м
[Cb cap]
+17.4 +3.6 40 +17 +17 тепло 1000.8 981.1
12 17.09 З 6
{12}
10 км 8/8 600 м
[Cb cap]
+18.0 +2.5 35 +17 +18 тепло 999.8 980.2
15 17.09 З 2 10 км 8/4 600 м
[Sc diur, vesp Ac lent Cc]
+16.0 +2.1 39 +16 +16 тепло 999.3 979.6 +19.0
18 17.09 З 1 10 км 8/3 1000 м
[Sc Ac lent]
+11.9 +5.0 63 +12 +12 по сезону 1001.0 981.0
21 17.09 ЮЗ 2 10 км ясно +7.6 +3.4 75 +6 +6 прохладно 1001.9 981.5
00 18.09 З 1 10 км ясно +5.1 +1.7 79 +4 +4 прохладно 1002.7 982.1

 

Местоположение метеостанции Пенза (Пензенская область, Россия): широта 53.12 долгота 45.02 высота над уровнем моря 172 м.

В архиве по умолчанию представлена погода в Пензе за последнюю неделю. Архивные данные за месяц целиком и за предыдущие месяцы, начиная с января 2011 года, Вы можете получить, выбрав интересующий диапазон дат из раскрывающегося списка и нажав кнопку "Ввод!".


*Определитесь, кто Вы:
робот инопланетянин человек

Внимание! Время в таблицах - всемирное. Для получения местного времени необходимо прибавить поправку, которая равна 3 ч.

Смотрите также архив погоды в соседних городах и на ближайших метеорологических станциях:

Погода в Кондоле (Пензенская область, Россия) (34 км)
Погода в Городище (Пензенская область, Россия) (47 км)
Погода в Колышлее (Пензенская область, Россия) (54 км)
Погода в Каменке (Пензенская область, Россия) (66 км)
Погода в Инсаре (Мордовия, Россия) (94 км)
Погода в Радищево (Пензенская область, Россия) (95 км)
Погода в Петровске (Саратовская область, Россия) (97 км)
Погода в Белинском (Пензенская область, Россия) (110 км)
Погода в Саранске (Мордовия, Россия) (113 км)
Погода в Пачелме (Пензенская область, Россия) (116 км)

Пояснения к столбцам:

Ветер - указаны скорость ветра в м/с - средняя за 10 мин, порывы в срок и между сроками (в фигурных скобках) и направление, откуда дует ветер: С - северный, СВ - северо-восточный, В - восточный, ЮВ - юго-восточный, Ю - южный, ЮЗ - юго-западный, З - западный, СЗ - северо-западный.
Видимость - горизонтальная дальность видимости в метрах или километрах. При видимости от 1 до 10 км при отсутствии осадков обычно наблюдается дымка, при ухудшении видимости до 1 км и менее - туман. В сухую погоду видимость может ухудшаться дымом, пылью или мглою.
Явления - указаны атмосферные явления, наблюдавшиеся в срок или в последний час перед сроком; фигурными скобками обозначены явления, наблюдавшиеся между сроками (за 1-3 часа до срока); квадратными скобками обозначены град или гололедные отложения с указанием их диаметра в мм.
Облачность - указаны через наклонную черту общая и нижняя облачность в баллах и высота нижней границы облаков в метрах; квадратными скобками обозначены формы облаков: Ci - перистые, Cs - перисто-слоистые, Cc - перисто-кучевые, Ac - высококучевые, As - высокослоистые, Sc - слоисто-кучевые, Ns - слоисто-дождевые, Cu - кучевые, Cb - кучево-дождевые. Подробнее классификацию облаков см. в Атласе облаков (PDF).
T - Температура воздуха - температура, измеренная на высоте 2 м над землей.
Td - Температура точки росы - температура, при понижении до которой содержащийся в воздухе водяной пар достигнет насыщения.
f - Относительная влажность воздуха - влажноcть воздуха, измеренная на высоте 2 м над землей.
Te - Эффективная температура - температура, которую ощущает одетый по сезону человек в тени. Характеристика душности погоды. При расчете учитывается влияние влажности воздуха и скорости ветра на теплоощущения человека.
Tes - Эффективная температура на солнце - температура, которую ощущает человек, с поправкой на солнечный нагрев. Характеристика знойности погоды. Зависит от высоты солнца над горизонтом, облачности и скорости ветра. Ночью, в пасмурную погоду, а также при ветре 12 м/с и более поправка равна нулю.
P - Атмосферное давление - приведенное к уровню моря атмосферное давление.
Po - Атмосферное давление - измеренное на уровне метеостанции атмосферное давление.
Tmin - Минимальная температура - минимум температуры воздуха на высоте 2 м над землей.
Tmax - Максимальная температура - максимум температуры воздуха на высоте 2 м над землей.
R - Количество осадков - Количество выпавших осадков за период времени, мм. При наведении курсора мыши на число - период времени, за который выпало указанное количество осадков.
R24 - Количество осадков - Количество выпавших осадков за 24 часа, мм.
S - Снежный покров - Высота снежного покрова, см. При наведении курсора мыши на число - состояние снежного покрова и степень покрытия местности в баллах.